Weather History for Havre, MT

Change the Weather History Date:

Friday, May 3, 2013

  Actual Average Record
Temperature  
Mean Temperature 49 °F 50 °F  
Max Temperature 62 °F 64 °F 90 °F (1998)
Min Temperature 36 °F 36 °F 15 °F (1899)
Degree Days  
Heating Degree Days 16 15  
Month to date heating degree days 69 47  
Since 1 July heating degree days 7671 7784  
Cooling Degree Days 0 0  
Month to date cooling degree days 0 0  
Year to date cooling degree days 0 1  
Growing Degree Days 3 (Base 50)    
Moisture  
Dew Point 36 °F    
Average Humidity 61    
Maximum Humidity 86    
Minimum Humidity 36    
Precipitation  
Precipitation 0.01 in 0.05 in 0.88 in (1901)
Month to date precipitation 0.01 0.13  
Year to date precipitation 2.73 2.12  
Snow  
Snow 0.00 in 0.10 in 1.20 in (1899)
Month to date snowfall 0.0 0.2  
Since 1 July snowfall 50.6 37.4  
Snow Depth 0.00 in    
Sea Level Pressure  
Sea Level Pressure 30.20 in    
Wind  
Wind Speed 9 mph (WSW)    
Max Wind Speed 18 mph    
Max Gust Speed 24 mph    
Visibility 10 miles    
Events Rain    
T = Trace of Precipitation, MM = Missing Value Source: NWS Daily Summary

Daily Weather History Graph

Daily Weather History Graph

Search for Another Location

Airport:

Trip Planner

Search our weather history database for the weather conditions in past years. The results will help you decide how hot, cold, wet, or windy it might be!

Date:

Astronomy

May. 03, 2013 Rise Set
Actual Time 5:55 AM MDT 8:37 PM MDT
Civil Twilight 5:20 AM MDT 9:12 PM MDT
Nautical Twilight 4:34 AM MDT 9:58 PM MDT
Astronomical Twilight 3:41 AM MDT 10:52 PM MDT
Moon 2:52 AM MDT (5/3) 2:06 PM MDT (5/3)
Length of Visible Light 15h 52m
Length of Day
14h 41m
Last Quarter, 36% of the Moon is Illuminated
May 3
Last Quarter
May 9
New
May 17
First Quarter
May 24
Full
May 31
Last Quarter

Hourly Weather History & Observations

Time (MDT) Temp. Windchill Dew Point Humidity Pressure Visibility Wind Dir Wind Speed Gust Speed Precip Events Conditions
12:53 AM 39.0 °F 34.0 °F 24.1 °F 55% 30.17 in 10.0 mi SSW 6.9 mph - N/A   Clear
1:53 AM 39.9 °F 35.8 °F 25.0 °F 55% 30.17 in 10.0 mi NW 5.8 mph - N/A   Clear
2:53 AM 37.0 °F 31.6 °F 25.0 °F 62% 30.18 in 10.0 mi West 6.9 mph - N/A   Clear
3:53 AM 44.1 °F 38.6 °F 24.1 °F 45% 30.16 in 10.0 mi SW 10.4 mph - N/A   Clear
4:53 AM 43.0 °F 37.7 °F 26.1 °F 51% 30.15 in 10.0 mi SSW 9.2 mph - N/A   Clear
5:53 AM 44.1 °F 37.1 °F 26.1 °F 49% 30.14 in 10.0 mi SW 15.0 mph - N/A   Scattered Clouds
6:53 AM 45.0 °F 37.9 °F 27.0 °F 49% 30.15 in 10.0 mi SW 16.1 mph - N/A   Overcast
7:53 AM 51.1 °F - 32.0 °F 48% 30.16 in 10.0 mi WSW 11.5 mph - N/A   Overcast
8:53 AM 53.1 °F - 39.9 °F 61% 30.19 in 10.0 mi West 12.7 mph - N/A   Overcast
9:53 AM 54.0 °F - 41.0 °F 62% 30.18 in 10.0 mi West 11.5 mph - N/A   Mostly Cloudy
10:53 AM 55.9 °F - 39.9 °F 55% 30.20 in 7.0 mi West 17.3 mph - N/A   Overcast
11:53 AM 57.0 °F - 37.0 °F 47% 30.19 in 10.0 mi West 11.5 mph - N/A   Overcast
12:53 PM 59.0 °F - 37.0 °F 44% 30.19 in 10.0 mi WSW 11.5 mph - N/A   Overcast
1:53 PM 60.1 °F - 34.0 °F 38% 30.18 in 10.0 mi Variable 6.9 mph 20.7 mph N/A   Mostly Cloudy
2:53 PM 59.0 °F - 35.1 °F 41% 30.19 in 10.0 mi NNW 5.8 mph - N/A   Overcast
3:53 PM 57.9 °F - 37.0 °F 46% 30.19 in 10.0 mi North 10.4 mph - 0.00 in   Overcast
4:53 PM 53.1 °F - 43.0 °F 69% 30.21 in 10.0 mi WSW 8.1 mph - 0.00 in   Overcast
5:53 PM 52.0 °F - 46.0 °F 80% 30.23 in 10.0 mi West 10.4 mph - 0.00 in Rain Light Rain
6:53 PM 50.0 °F - 46.9 °F 89% 30.23 in 10.0 mi SW 5.8 mph - 0.01 in Rain Light Rain
7:53 PM 50.0 °F - 46.9 °F 89% 30.23 in 10.0 mi SW 6.9 mph - 0.00 in Rain Light Rain
8:53 PM 48.9 °F - 46.0 °F 90% 30.24 in 10.0 mi SW 8.1 mph - 0.00 in   Overcast
9:53 PM 50.0 °F - 44.1 °F 80% 30.25 in 10.0 mi WSW 5.8 mph - 0.00 in   Overcast
10:53 PM 51.1 °F - 39.9 °F 66% 30.25 in 10.0 mi Calm Calm - N/A   Overcast
11:53 PM 48.0 °F - 44.1 °F 86% 30.26 in 10.0 mi Variable 3.5 mph - N/A   Overcast